Regional Weather Roundup
Issued by NWS Sterling, VA

Home | Current Version | Previous Version | Graphics & Text | Print | Product List | Glossary Off
Versions: 1 2 3 4 5 6 7 8 9 10 11 12 13 14 15 16 17 18 19 20 21 22 23 24 25 26 27 28 29 30 31 32 33 34 35 36 37 38 39 40 41 42 43 44 45 46 47 48 49 50

000
ASUS41 KLWX 040310
RWRLWX

REGIONAL WEATHER ROUNDUP
NATIONAL WEATHER SERVICE BALTIMORE MD/WASHINGTON DC
1000 PM EST TUE MAR 03 2015

Note: "FAIR" indicates few or no clouds below 12,000 feet
with no significant weather and/or obstructions to visibility.
 TC=TEMPERATURE CELSIUS

 * =Non NWS site. Station does not report precipitation (e.g. rain,
    snow, etc.), thunder, or fog.

DCZ001-MDZ009-015-VAZ040>042-051-053>054-040400-
WASHINGTON METRO

CITY           SKY/WX    TMP DP  RH WIND       PRES   REMARKS
WASHINGTON NAT CLOUDY    38  28  67 S15       29.96F
DULLES         MOCLDY    37  30  75 S13G22    29.92F WCI  29
ANDREWS AFB    CLOUDY    35  30  81 SW18      29.93F WCI  24
FT BELVOIR     CLOUDY    37  29  71 VRB7      29.96F
QUANTICO       CLOUDY    39  31  72 SW12      29.99F
COLLEGE PARK*  CLOUDY    36  30  80 S8        29.95F
LEESBURG*      PTCLDY    36  34  93 S10       29.91F WCI  28
MANASSAS*      PTCLDY    37  34  87 S14G20    29.95  WCI  29
GAITHERSBURG*  MOCLDY    34  27  75 CALM      29.94F

$$

MDZ006>007-011-014-040400-
BALTIMORE METRO

CITY           SKY/WX    TMP DP  RH WIND       PRES   REMARKS
BWI AIRPORT    CLOUDY    32  28  85 S5        29.93F
MD SCIENCE CTR   N/A     33  28  81 MISG      29.95F
MARTIN STATE   CLOUDY    34  32  93 SE7       29.99F
ANNAPOLIS      CLOUDY    33  28  81 S6        29.96F
FORT MEADE*    CLOUDY    32  30  93 S6        29.96F

$$

MDZ012-015-019>023-040400-
MARYLAND EASTERN SHORE

CITY           SKY/WX    TMP DP  RH WIND       PRES   REMARKS
OCEAN CITY     CLOUDY    37  34  89 SW14G22   30.01F WCI  28
SALISBURY      CLOUDY    37  31  78 SW10      30.00F
BAY BRIDGE AP*   N/A     32  32 100 S7        29.96F
CAMBRIDGE*     CLOUDY    36  32  87 S7        29.99F
EASTON*        CLOUDY    35  35 100 SW8       30.01F WCI  28

$$

MDZ017>025-040400-
SOUTHERN MARYLAND

CITY           SKY/WX    TMP DP  RH WIND       PRES   REMARKS
PATUXENT RIVER CLOUDY    36  31  82 SW17G26   29.98F WCI  26
ST INIGOES     CLOUDY    36  30  79 SW14      30.00F WCI  27
LEONARDTOWN*   CLOUDY    36  32  87 SW12G20   30.00F WCI  27

$$

MDZ003>005-040400-
NORTH CENTRAL MARYLAND

CITY           SKY/WX    TMP DP  RH WIND       PRES   REMARKS
FREDERICK*     CLOUDY    36  27  69 S9        29.92F WCI  29
HAGERSTOWN APT CLOUDY    35  26  69 S8        29.85F WCI  29
WESTMINSTER*   CLOUDY    32  28  86 S9G16     29.87F WCI  24

$$

MDZ501>502-040400-
WESTERN MARYLAND

CITY           SKY/WX    TMP DP  RH WIND       PRES   REMARKS
OAKLAND*       CLOUDY    50 N/A N/A SW15G31   29.76S FOG
CUMBERLAND*      N/A     34  34 100 MISG        N/A

$$

VAZ025>031-040400-
SHENANDOAH VALLEY

CITY           SKY/WX    TMP DP  RH WIND       PRES   REMARKS
WINCHESTER*    PTCLDY    39  30  70 SW10G18   29.85F
FRONT ROYAL*   FAIR      41  32  70 S8G18     29.85F
LURAY*         FAIR      41  36  81 SW18G24   29.89F
NEW MARKET*    FAIR      37  31  79 SW8       29.90F
STAUNTON*      CLOUDY    37  31  78 SW6       29.96S
WAYNESBORO*    MOCLDY    35  31  88 CALM      29.93F

$$

WVZ021-048>050-054>055-040400-
EASTERN WEST VIRGINIA PANHANDLE

CITY           SKY/WX    TMP DP  RH WIND       PRES   REMARKS
MARTINSBURG    CLOUDY    38  26  62 SE8       29.85F
PETERSBURG*    NOT AVBL

$$

VAZ036>039-050-040400-
CENTRAL FOOTHILLS

CITY           SKY/WX    TMP DP  RH WIND       PRES   REMARKS
CHARLOTTESVILL PTCLDY    35  29  78 SW12      29.96F WCI  27
CULPEPER*      MOCLDY    37  34  87 S12       29.95F
ORANGE*        MOCLDY    36  32  87 S12G21    29.98F WCI  27
GORDONSVILLE*  MOCLDY    34  31  90 SW15G22   29.95F WCI  24
WARRENTON*     MOCLDY    38  36  92 S14G21    29.93F

$$

VAZ055>057-040400-
NORTH AND CENTRAL PIEDMONT

CITY           SKY/WX    TMP DP  RH WIND       PRES   REMARKS
FREDERICKSBRG* MOCLDY    40  35  83 SW18      29.98F
STAFFORD*      CLOUDY    38  32  79 S10       30.01F

$$

NCZ024-NYZ072-PAZ021-071-VAZ022-071-040400-
OTHER REGIONAL OBSERVATIONS

CITY           SKY/WX    TMP DP  RH WIND       PRES   REMARKS
NEW YORK CITY  LGT RAIN  35  31  85 MISG      29.96F FOG
PHILADELPHIA   FRZ RAIN  33  31  92 SW14      29.96F FOG     WCI  23
PITTSBURGH     LGT RAIN  48  46  93 W12G21    29.73R
ROANOKE        LGT RAIN  38  34  85 CALM      30.04F FOG
RICHMOND       CLOUDY    36  33  89 S13       30.05F FOG     WCI  27
RALEIGH        DRIZZLE   36  34  92 CALM      30.12F FOG

$$

ANZ530>537-040400-
MARINE OBSERVATIONS

STATION/POSITION TIME  TEMP    WIND        PRES
                       AIR SEA DIR/SP/G
                 (UTC) (F)     (DEG/KT/KT) (MB)
THOMAS PT LIGHT  0300   33 31  190/  2/  3 1015.5F
BALT KEY BRIDGE  0200   32     150/  4/  5 1014.8F
COVE POINT       0200   34     220/ 12/ 14 1016.6F
LEWISETTA        0200   36 33  230/ 11/ 14 1016.8F
SOLOMONS ISLAND  0200      33                N/A

$$



USA.gov is the U.S. government's official web portal to all federal, state and local government web resources and services.